Year,Month,Day,Hour,Minute,Value (Times are PST for temperature in C)
2008,05,09,00,00,4.10
2008,05,09,00,01,4.10
2008,05,09,00,02,4.10
2008,05,09,00,03,4.10
2008,05,09,00,04,4.10
2008,05,09,00,05,4.10
2008,05,09,00,06,4.10
2008,05,09,00,07,4.10
2008,05,09,00,08,4.00
2008,05,09,00,09,4.00
2008,05,09,00,10,4.00
2008,05,09,00,11,4.00
2008,05,09,00,12,4.00
2008,05,09,00,13,4.00
2008,05,09,00,14,3.90
2008,05,09,00,15,3.90
2008,05,09,00,16,3.90
2008,05,09,00,17,3.90
2008,05,09,00,18,3.90
2008,05,09,00,19,3.90
2008,05,09,00,20,3.80
2008,05,09,00,21,3.80
2008,05,09,00,22,3.80
2008,05,09,00,23,3.70
2008,05,09,00,24,3.70
2008,05,09,00,25,3.70
2008,05,09,00,26,3.70
2008,05,09,00,27,3.70
2008,05,09,00,28,3.70
2008,05,09,00,29,3.70
2008,05,09,00,30,3.60
2008,05,09,00,31,3.60
2008,05,09,00,32,3.60
2008,05,09,00,33,3.60
2008,05,09,00,34,3.60
2008,05,09,00,35,3.60
2008,05,09,00,36,3.60
2008,05,09,00,37,3.60
2008,05,09,00,38,3.60
2008,05,09,00,39,3.60
2008,05,09,00,40,3.60
2008,05,09,00,41,3.60
2008,05,09,00,42,3.60
2008,05,09,00,43,3.60
2008,05,09,00,44,3.50
2008,05,09,00,45,3.50
2008,05,09,00,46,3.50
2008,05,09,00,47,3.40
2008,05,09,00,48,3.40
2008,05,09,00,49,3.40
2008,05,09,00,50,3.40
2008,05,09,00,51,3.40
2008,05,09,00,52,3.40
2008,05,09,00,53,3.40
2008,05,09,00,54,3.40
2008,05,09,00,55,3.40
2008,05,09,00,56,3.40
2008,05,09,00,57,3.40
2008,05,09,00,58,3.40
2008,05,09,00,59,3.40
2008,05,09,01,00,3.40
2008,05,09,01,01,3.40
2008,05,09,01,02,3.40
2008,05,09,01,03,3.40
2008,05,09,01,04,3.40
2008,05,09,01,05,3.40
2008,05,09,01,06,3.40
2008,05,09,01,07,3.30
2008,05,09,01,08,3.30
2008,05,09,01,09,3.30
2008,05,09,01,10,3.30
2008,05,09,01,11,3.30
2008,05,09,01,12,3.30
2008,05,09,01,13,3.30
2008,05,09,01,14,3.30
2008,05,09,01,15,3.30
2008,05,09,01,16,3.30
2008,05,09,01,17,3.30
2008,05,09,01,18,3.30
2008,05,09,01,19,3.30
2008,05,09,01,20,3.30
2008,05,09,01,21,3.30
2008,05,09,01,22,3.30
2008,05,09,01,23,3.20
2008,05,09,01,24,3.20
2008,05,09,01,25,3.20
2008,05,09,01,26,3.20
2008,05,09,01,27,3.20
2008,05,09,01,28,3.20
2008,05,09,01,29,3.20
2008,05,09,01,30,3.20
2008,05,09,01,31,3.20
2008,05,09,01,32,3.20
2008,05,09,01,33,3.20
2008,05,09,01,34,3.20
2008,05,09,01,35,3.20
2008,05,09,01,36,3.20
2008,05,09,01,37,3.20
2008,05,09,01,38,3.20
2008,05,09,01,39,3.20
2008,05,09,01,40,3.20
2008,05,09,01,41,3.20
2008,05,09,01,42,3.20
2008,05,09,01,43,3.20
2008,05,09,01,44,3.20
2008,05,09,01,45,3.10
2008,05,09,01,46,3.10
2008,05,09,01,47,3.10
2008,05,09,01,48,3.10
2008,05,09,01,49,3.10
2008,05,09,01,50,3.10
2008,05,09,01,51,3.10
2008,05,09,01,52,3.00
2008,05,09,01,53,3.00
2008,05,09,01,54,3.00
2008,05,09,01,55,3.00
2008,05,09,01,56,3.00
2008,05,09,01,57,3.00
2008,05,09,01,58,2.90
2008,05,09,01,59,2.90
2008,05,09,02,00,2.90
2008,05,09,02,01,2.90
2008,05,09,02,02,2.90
2008,05,09,02,03,2.90
2008,05,09,02,04,2.90
2008,05,09,02,05,2.90
2008,05,09,02,06,2.90
2008,05,09,02,07,2.90
2008,05,09,02,08,2.90
2008,05,09,02,09,2.90
2008,05,09,02,10,2.90
2008,05,09,02,11,2.90
2008,05,09,02,12,2.80
2008,05,09,02,13,2.80
2008,05,09,02,14,2.80
2008,05,09,02,15,2.80
2008,05,09,02,16,2.80
2008,05,09,02,17,2.80
2008,05,09,02,18,2.80
2008,05,09,02,19,2.80
2008,05,09,02,20,2.80
2008,05,09,02,21,2.80
2008,05,09,02,22,2.70
2008,05,09,02,23,2.70
2008,05,09,02,24,2.70
2008,05,09,02,25,2.70
2008,05,09,02,26,2.70
2008,05,09,02,27,2.70
2008,05,09,02,28,2.70
2008,05,09,02,29,2.70
2008,05,09,02,30,2.70
2008,05,09,02,31,2.70
2008,05,09,02,32,2.70
2008,05,09,02,33,2.60
2008,05,09,02,34,2.60
2008,05,09,02,35,2.60
2008,05,09,02,36,2.60
2008,05,09,02,37,2.60
2008,05,09,02,38,2.50
2008,05,09,02,39,2.50
2008,05,09,02,40,2.50
2008,05,09,02,41,2.50
2008,05,09,02,42,2.50
2008,05,09,02,43,2.50
2008,05,09,02,44,2.40
2008,05,09,02,45,2.40
2008,05,09,02,46,2.40
2008,05,09,02,47,2.40
2008,05,09,02,48,2.40
2008,05,09,02,49,2.40
2008,05,09,02,50,2.40
2008,05,09,02,51,2.40
2008,05,09,02,52,2.40
2008,05,09,02,53,2.40
2008,05,09,02,54,2.40
2008,05,09,02,55,2.40
2008,05,09,02,56,2.40
2008,05,09,02,57,2.40
2008,05,09,02,58,2.40
2008,05,09,02,59,2.40
2008,05,09,03,00,2.40
2008,05,09,03,01,2.40
2008,05,09,03,02,2.30
2008,05,09,03,03,2.30
2008,05,09,03,04,2.30
2008,05,09,03,05,2.30
2008,05,09,03,06,2.30
2008,05,09,03,07,2.30
2008,05,09,03,08,2.30
2008,05,09,03,09,2.30
2008,05,09,03,10,2.30
2008,05,09,03,11,2.30
2008,05,09,03,12,2.30
2008,05,09,03,13,2.30
2008,05,09,03,14,2.30
2008,05,09,03,15,2.30
2008,05,09,03,16,2.30
2008,05,09,03,17,2.30
2008,05,09,03,18,2.30
2008,05,09,03,19,2.30
2008,05,09,03,20,2.30
2008,05,09,03,21,2.30
2008,05,09,03,22,2.30
2008,05,09,03,23,2.30
2008,05,09,03,24,2.30
2008,05,09,03,25,2.30
2008,05,09,03,26,2.30
2008,05,09,03,27,2.20
2008,05,09,03,28,2.20
2008,05,09,03,29,2.20
2008,05,09,03,30,2.20
2008,05,09,03,31,2.20
2008,05,09,03,32,2.20
2008,05,09,03,33,2.20
2008,05,09,03,34,2.20
2008,05,09,03,35,2.20
2008,05,09,03,36,2.20
2008,05,09,03,37,2.20
2008,05,09,03,38,2.20
2008,05,09,03,39,2.20
2008,05,09,03,40,2.20
2008,05,09,03,41,2.20
2008,05,09,03,42,2.20
2008,05,09,03,43,2.20
2008,05,09,03,44,2.20
2008,05,09,03,45,2.20
2008,05,09,03,46,2.20
2008,05,09,03,47,2.20
2008,05,09,03,48,2.20
2008,05,09,03,49,2.20
2008,05,09,03,50,2.20
2008,05,09,03,51,2.20
2008,05,09,03,52,2.20
2008,05,09,03,53,2.20
2008,05,09,03,54,2.20
2008,05,09,03,55,2.20
2008,05,09,03,56,2.10
2008,05,09,03,57,2.10
2008,05,09,03,58,2.10
2008,05,09,03,59,2.10
2008,05,09,04,00,2.10
2008,05,09,04,01,2.10
2008,05,09,04,02,2.10
2008,05,09,04,03,2.20
2008,05,09,04,04,2.20
2008,05,09,04,05,2.20
2008,05,09,04,06,2.20
2008,05,09,04,07,2.20
2008,05,09,04,08,2.10
2008,05,09,04,09,2.10
2008,05,09,04,10,2.10
2008,05,09,04,11,2.10
2008,05,09,04,12,2.10
2008,05,09,04,13,2.10
2008,05,09,04,14,2.10
2008,05,09,04,15,2.10
2008,05,09,04,16,2.10
2008,05,09,04,17,2.10
2008,05,09,04,18,2.10
2008,05,09,04,19,2.10
2008,05,09,04,20,2.10
2008,05,09,04,21,2.10
2008,05,09,04,22,2.10
2008,05,09,04,23,2.10
2008,05,09,04,24,2.10
2008,05,09,04,25,2.10
2008,05,09,04,26,2.10
2008,05,09,04,27,2.10
2008,05,09,04,28,2.10
2008,05,09,04,29,2.10
2008,05,09,04,30,2.10
2008,05,09,04,31,2.10
2008,05,09,04,32,2.10
2008,05,09,04,33,2.10
2008,05,09,04,34,2.20
2008,05,09,04,35,2.20
2008,05,09,04,36,2.20
2008,05,09,04,37,2.20
2008,05,09,04,38,2.20
2008,05,09,04,39,2.20
2008,05,09,04,40,2.20
2008,05,09,04,41,2.20
2008,05,09,04,42,2.10
2008,05,09,04,43,2.10
2008,05,09,04,44,2.20
2008,05,09,04,45,2.20
2008,05,09,04,46,2.10
2008,05,09,04,47,2.10
2008,05,09,04,48,2.10
2008,05,09,04,49,2.10
2008,05,09,04,50,2.10
2008,05,09,04,51,2.20
2008,05,09,04,52,2.10
2008,05,09,04,53,2.20
2008,05,09,04,54,2.20
2008,05,09,04,55,2.20
2008,05,09,04,56,2.20
2008,05,09,04,57,2.20
2008,05,09,04,58,2.20
2008,05,09,04,59,2.20
2008,05,09,05,00,2.20
2008,05,09,05,01,2.20
2008,05,09,05,02,2.20
2008,05,09,05,03,2.20
2008,05,09,05,04,2.20
2008,05,09,05,05,2.20
2008,05,09,05,06,2.20
2008,05,09,05,07,2.20
2008,05,09,05,08,2.20
2008,05,09,05,09,2.20
2008,05,09,05,10,2.20
2008,05,09,05,11,2.20
2008,05,09,05,12,2.20
2008,05,09,05,13,2.20
2008,05,09,05,14,2.20
2008,05,09,05,15,2.20
2008,05,09,05,16,2.20
2008,05,09,05,17,2.20
2008,05,09,05,18,2.20
2008,05,09,05,19,2.20
2008,05,09,05,20,2.20
2008,05,09,05,21,2.20
2008,05,09,05,22,2.20
2008,05,09,05,23,2.20
2008,05,09,05,24,2.20
2008,05,09,05,25,2.20
2008,05,09,05,26,2.20
2008,05,09,05,27,2.20
2008,05,09,05,28,2.30
2008,05,09,05,29,2.30
2008,05,09,05,30,2.30
2008,05,09,05,31,2.30
2008,05,09,05,32,2.30
2008,05,09,05,33,2.30
2008,05,09,05,34,2.30
2008,05,09,05,35,2.30
2008,05,09,05,36,2.30
2008,05,09,05,37,2.30
2008,05,09,05,38,2.30
2008,05,09,05,39,2.30
2008,05,09,05,40,2.40
2008,05,09,05,41,2.40
2008,05,09,05,42,2.40
2008,05,09,05,43,2.40
2008,05,09,05,44,2.40
2008,05,09,05,45,2.40
2008,05,09,05,46,2.40
2008,05,09,05,47,2.40
2008,05,09,05,48,2.40
2008,05,09,05,49,2.40
2008,05,09,05,50,2.40
2008,05,09,05,51,2.50
2008,05,09,05,52,2.50
2008,05,09,05,53,2.50
2008,05,09,05,54,2.50
2008,05,09,05,55,2.60
2008,05,09,05,56,2.60
2008,05,09,05,57,2.60
2008,05,09,05,58,2.60
2008,05,09,05,59,2.70
2008,05,09,06,00,2.70
2008,05,09,06,01,2.70
2008,05,09,06,02,2.70
2008,05,09,06,03,2.70
2008,05,09,06,04,2.70
2008,05,09,06,05,2.80
2008,05,09,06,06,2.80
2008,05,09,06,07,2.80
2008,05,09,06,08,2.80
2008,05,09,06,09,2.90
2008,05,09,06,10,2.90
2008,05,09,06,11,3.00
2008,05,09,06,12,3.10
2008,05,09,06,13,3.20
2008,05,09,06,14,3.30
2008,05,09,06,15,3.40
2008,05,09,06,16,3.40
2008,05,09,06,17,3.50
2008,05,09,06,18,3.60
2008,05,09,06,19,3.70
2008,05,09,06,20,3.70
2008,05,09,06,21,3.80
2008,05,09,06,22,3.80
2008,05,09,06,23,3.90
2008,05,09,06,24,4.00
2008,05,09,06,25,4.00
2008,05,09,06,26,4.10
2008,05,09,06,27,4.20
2008,05,09,06,28,4.20
2008,05,09,06,29,4.30
2008,05,09,06,30,4.40
2008,05,09,06,31,4.40
2008,05,09,06,32,4.50
2008,05,09,06,33,4.60
2008,05,09,06,34,4.70
2008,05,09,06,35,4.80
2008,05,09,06,36,4.90
2008,05,09,06,37,5.00
2008,05,09,06,38,5.10
2008,05,09,06,39,5.20
2008,05,09,06,40,5.30
2008,05,09,06,41,5.30
2008,05,09,06,42,5.40
2008,05,09,06,43,5.50
2008,05,09,06,44,5.50
2008,05,09,06,45,5.60
2008,05,09,06,46,5.70
2008,05,09,06,47,5.80
2008,05,09,06,48,5.90
2008,05,09,06,49,6.00
2008,05,09,06,50,6.00
2008,05,09,06,51,6.10
2008,05,09,06,52,6.20
2008,05,09,06,53,6.30
2008,05,09,06,54,6.40
2008,05,09,06,55,6.50
2008,05,09,06,56,6.60
2008,05,09,06,57,6.70
2008,05,09,06,58,6.80
2008,05,09,06,59,7.00
2008,05,09,07,00,7.20
2008,05,09,07,01,7.30
2008,05,09,07,02,7.50
2008,05,09,07,03,7.60
2008,05,09,07,04,7.70
2008,05,09,07,05,7.80
2008,05,09,07,06,7.90
2008,05,09,07,07,8.00
2008,05,09,07,08,8.20
2008,05,09,07,09,8.30
2008,05,09,07,10,8.50
2008,05,09,07,11,8.60
2008,05,09,07,12,8.70
2008,05,09,07,13,8.80
2008,05,09,07,14,8.90
2008,05,09,07,15,9.00
2008,05,09,07,16,9.00
2008,05,09,07,17,9.10
2008,05,09,07,18,9.20
2008,05,09,07,19,9.20
2008,05,09,07,20,9.20
2008,05,09,07,21,9.20
2008,05,09,07,22,9.10
2008,05,09,07,23,9.20
2008,05,09,07,24,9.20
2008,05,09,07,25,9.30
2008,05,09,07,26,9.30
2008,05,09,07,27,9.30
2008,05,09,07,28,9.30
2008,05,09,07,29,9.30
2008,05,09,07,30,9.40
2008,05,09,07,31,9.40
2008,05,09,07,32,9.40
2008,05,09,07,33,9.40
2008,05,09,07,34,9.30
2008,05,09,07,35,9.30
2008,05,09,07,36,9.30
2008,05,09,07,37,9.20
2008,05,09,07,38,9.20
2008,05,09,07,39,9.20
2008,05,09,07,40,9.20
2008,05,09,07,41,9.20
2008,05,09,07,42,9.10
2008,05,09,07,43,9.10
2008,05,09,07,44,9.20
2008,05,09,07,45,9.20
2008,05,09,07,46,9.20
2008,05,09,07,47,9.20
2008,05,09,07,48,9.20
2008,05,09,07,49,9.20
2008,05,09,07,50,9.20
2008,05,09,07,51,9.20
2008,05,09,07,52,9.10
2008,05,09,07,53,9.10
2008,05,09,07,54,9.00
2008,05,09,07,55,8.90
2008,05,09,07,56,8.90
2008,05,09,07,57,8.90
2008,05,09,07,58,8.90
2008,05,09,07,59,8.90
2008,05,09,08,00,8.90
2008,05,09,08,01,8.90
2008,05,09,08,02,9.00
2008,05,09,08,03,9.00
2008,05,09,08,04,9.00
2008,05,09,08,05,9.10
2008,05,09,08,06,9.20
2008,05,09,08,07,9.20
2008,05,09,08,08,9.30
2008,05,09,08,09,9.40
2008,05,09,08,10,9.40
2008,05,09,08,11,9.40
2008,05,09,08,12,9.30
2008,05,09,08,13,9.40
2008,05,09,08,14,9.30
2008,05,09,08,15,9.30
2008,05,09,08,16,9.30
2008,05,09,08,17,9.30
2008,05,09,08,18,9.30
2008,05,09,08,19,9.30
2008,05,09,08,20,9.30
2008,05,09,08,21,9.30
2008,05,09,08,22,9.40
2008,05,09,08,23,9.40
2008,05,09,08,24,9.40
2008,05,09,08,25,9.50
2008,05,09,08,26,9.50
2008,05,09,08,27,9.50
2008,05,09,08,28,9.50
2008,05,09,08,29,9.60
2008,05,09,08,30,9.60
2008,05,09,08,31,9.60
2008,05,09,08,32,9.70
2008,05,09,08,33,9.80
2008,05,09,08,34,9.80
2008,05,09,08,35,9.90
2008,05,09,08,36,9.90
2008,05,09,08,37,9.90
2008,05,09,08,38,10.00
2008,05,09,08,39,10.10
2008,05,09,08,40,10.10
2008,05,09,08,41,10.10
2008,05,09,08,42,10.10
2008,05,09,08,43,10.10
2008,05,09,08,44,10.10
2008,05,09,08,45,10.10
2008,05,09,08,46,10.10
2008,05,09,08,47,10.10
2008,05,09,08,48,10.10
2008,05,09,08,49,10.10
2008,05,09,08,50,10.20
2008,05,09,08,51,10.20
2008,05,09,08,52,10.20
2008,05,09,08,53,10.20
2008,05,09,08,54,10.30
2008,05,09,08,55,10.30
2008,05,09,08,56,10.30
2008,05,09,08,57,10.30
2008,05,09,08,58,10.30
2008,05,09,08,59,10.20
2008,05,09,09,00,10.20
2008,05,09,09,01,10.30
2008,05,09,09,02,10.30
2008,05,09,09,03,10.30
2008,05,09,09,04,10.30
2008,05,09,09,05,10.30
2008,05,09,09,06,10.40
2008,05,09,09,07,10.40
2008,05,09,09,08,10.40
2008,05,09,09,09,10.50
2008,05,09,09,10,10.50
2008,05,09,09,11,10.50
2008,05,09,09,12,10.60
2008,05,09,09,13,10.60
2008,05,09,09,14,10.70
2008,05,09,09,15,10.80
2008,05,09,09,16,10.90
2008,05,09,09,17,11.00
2008,05,09,09,18,11.00
2008,05,09,09,19,11.10
2008,05,09,09,20,11.20
2008,05,09,09,21,11.20
2008,05,09,09,22,11.40
2008,05,09,09,23,11.50
2008,05,09,09,24,11.70
2008,05,09,09,25,11.80
2008,05,09,09,26,11.80
2008,05,09,09,27,11.80
2008,05,09,09,28,11.80
2008,05,09,09,29,11.80
2008,05,09,09,30,11.80
2008,05,09,09,31,11.70
2008,05,09,09,32,11.60
2008,05,09,09,33,11.60
2008,05,09,09,34,11.60
2008,05,09,09,35,11.60
2008,05,09,09,36,11.60
2008,05,09,09,37,11.60
2008,05,09,09,38,11.50
2008,05,09,09,39,11.50
2008,05,09,09,40,11.40
2008,05,09,09,41,11.50
2008,05,09,09,42,11.60
2008,05,09,09,43,11.60
2008,05,09,09,44,11.70
2008,05,09,09,45,11.80
2008,05,09,09,46,11.80
2008,05,09,09,47,11.80
2008,05,09,09,48,11.80
2008,05,09,09,49,11.90
2008,05,09,09,50,11.80
2008,05,09,09,51,11.80
2008,05,09,09,52,11.80
2008,05,09,09,53,11.70
2008,05,09,09,54,11.70
2008,05,09,09,55,11.70
2008,05,09,09,56,11.70
2008,05,09,09,57,11.50
2008,05,09,09,58,11.30
2008,05,09,09,59,11.30
2008,05,09,10,00,11.30
2008,05,09,10,01,11.30
2008,05,09,10,02,11.30
2008,05,09,10,03,11.40
2008,05,09,10,04,11.50
2008,05,09,10,05,11.60
2008,05,09,10,06,11.60
2008,05,09,10,07,11.60
2008,05,09,10,08,11.70
2008,05,09,10,09,11.70
2008,05,09,10,10,11.80
2008,05,09,10,11,11.80
2008,05,09,10,12,11.80
2008,05,09,10,13,11.70
2008,05,09,10,14,11.60
2008,05,09,10,15,11.50
2008,05,09,10,16,11.50
2008,05,09,10,17,11.40
2008,05,09,10,18,11.50
2008,05,09,10,19,11.50
2008,05,09,10,20,11.60
2008,05,09,10,21,11.60
2008,05,09,10,22,11.60
2008,05,09,10,23,11.70
2008,05,09,10,24,11.80
2008,05,09,10,25,11.80
2008,05,09,10,26,11.90
2008,05,09,10,27,11.90
2008,05,09,10,28,11.90
2008,05,09,10,29,11.90
2008,05,09,10,30,11.80
2008,05,09,10,31,11.70
2008,05,09,10,32,11.70
2008,05,09,10,33,11.70
2008,05,09,10,34,11.80
2008,05,09,10,35,11.80
2008,05,09,10,36,11.90
2008,05,09,10,37,11.90
2008,05,09,10,38,11.90
2008,05,09,10,39,12.00
2008,05,09,10,40,11.90
2008,05,09,10,41,11.80
2008,05,09,10,42,11.80
2008,05,09,10,43,11.80
2008,05,09,10,44,11.80
2008,05,09,10,45,11.80
2008,05,09,10,46,11.80
2008,05,09,10,47,11.70
2008,05,09,10,48,11.70
2008,05,09,10,49,11.80
2008,05,09,10,50,11.80
2008,05,09,10,51,11.80
2008,05,09,10,52,11.70
2008,05,09,10,53,11.70
2008,05,09,10,54,11.80
2008,05,09,10,55,11.80
2008,05,09,10,56,11.80
2008,05,09,10,57,11.90
2008,05,09,10,58,12.00
2008,05,09,10,59,11.90
2008,05,09,11,00,11.90
2008,05,09,11,01,11.90
2008,05,09,11,02,11.90
2008,05,09,11,03,11.80
2008,05,09,11,04,11.90
2008,05,09,11,05,12.00
2008,05,09,11,06,12.10
2008,05,09,11,07,12.20
2008,05,09,11,08,12.30
2008,05,09,11,09,12.40
2008,05,09,11,10,12.40
2008,05,09,11,11,12.40
2008,05,09,11,12,12.40
2008,05,09,11,13,12.50
2008,05,09,11,14,12.50
2008,05,09,11,15,12.60
2008,05,09,11,16,12.60
2008,05,09,11,17,12.60
2008,05,09,11,18,12.70
2008,05,09,11,19,12.70
2008,05,09,11,20,12.80
2008,05,09,11,21,12.80
2008,05,09,11,22,12.70
2008,05,09,11,23,12.70
2008,05,09,11,24,12.70
2008,05,09,11,25,12.80
2008,05,09,11,26,12.90
2008,05,09,11,27,12.80
2008,05,09,11,28,12.70
2008,05,09,11,29,12.60
2008,05,09,11,30,12.40
2008,05,09,11,31,12.40
2008,05,09,11,32,12.30
2008,05,09,11,33,12.30
2008,05,09,11,34,12.40
2008,05,09,11,35,12.40
2008,05,09,11,36,12.40
2008,05,09,11,37,12.40
2008,05,09,11,38,12.50
2008,05,09,11,39,12.40
2008,05,09,11,40,12.40
2008,05,09,11,41,12.40
2008,05,09,11,42,12.40
2008,05,09,11,43,12.40
2008,05,09,11,44,12.30
2008,05,09,11,45,12.30
2008,05,09,11,46,12.30
2008,05,09,11,47,12.30
2008,05,09,11,48,12.40
2008,05,09,11,49,12.40
2008,05,09,11,50,12.50
2008,05,09,11,51,12.60
2008,05,09,11,52,12.60
2008,05,09,11,53,12.60
2008,05,09,11,54,12.60
2008,05,09,11,55,12.60
2008,05,09,11,56,12.60
2008,05,09,11,57,12.70
2008,05,09,11,58,12.70
2008,05,09,11,59,12.80
2008,05,09,12,00,12.80
2008,05,09,12,01,12.80
2008,05,09,12,02,12.80
2008,05,09,12,03,13.00
2008,05,09,12,04,13.10
2008,05,09,12,05,13.20
2008,05,09,12,06,13.30
2008,05,09,12,07,13.30
2008,05,09,12,08,13.30
2008,05,09,12,09,13.40
2008,05,09,12,10,13.50
2008,05,09,12,11,13.50
2008,05,09,12,12,13.60
2008,05,09,12,13,13.70
2008,05,09,12,14,13.70
2008,05,09,12,15,13.70
2008,05,09,12,16,13.80
2008,05,09,12,17,13.80
2008,05,09,12,18,13.70
2008,05,09,12,19,13.60
2008,05,09,12,20,13.50
2008,05,09,12,21,13.50
2008,05,09,12,22,13.60
2008,05,09,12,23,13.60
2008,05,09,12,24,13.70
2008,05,09,12,25,13.70
2008,05,09,12,26,13.80
2008,05,09,12,27,13.80
2008,05,09,12,28,13.80
2008,05,09,12,29,13.70
2008,05,09,12,30,13.50
2008,05,09,12,31,13.40
2008,05,09,12,32,13.30
2008,05,09,12,33,13.30
2008,05,09,12,34,13.30
2008,05,09,12,35,13.40
2008,05,09,12,36,13.30
2008,05,09,12,37,13.40
2008,05,09,12,38,13.40
2008,05,09,12,39,13.30
2008,05,09,12,40,13.30
2008,05,09,12,41,13.20
2008,05,09,12,42,13.20
2008,05,09,12,43,13.30
2008,05,09,12,44,13.40
2008,05,09,12,45,13.40
2008,05,09,12,46,13.40
2008,05,09,12,47,13.30
2008,05,09,12,48,13.20
2008,05,09,12,49,13.10
2008,05,09,12,50,13.00
2008,05,09,12,51,13.00
2008,05,09,12,52,13.10
2008,05,09,12,53,13.20
2008,05,09,12,54,13.20
2008,05,09,12,55,13.30
2008,05,09,12,56,13.30
2008,05,09,12,57,13.20
2008,05,09,12,58,13.10
2008,05,09,12,59,13.10
2008,05,09,13,00,13.10
2008,05,09,13,01,13.10
2008,05,09,13,02,13.10
2008,05,09,13,03,13.10
2008,05,09,13,04,13.10
2008,05,09,13,05,13.10
2008,05,09,13,06,13.10
2008,05,09,13,07,13.10
2008,05,09,13,08,13.20
2008,05,09,13,09,13.30
2008,05,09,13,10,13.30
2008,05,09,13,11,13.40
2008,05,09,13,12,13.40
2008,05,09,13,13,13.40
2008,05,09,13,14,13.40
2008,05,09,13,15,13.40
2008,05,09,13,16,13.40
2008,05,09,13,17,13.40
2008,05,09,13,18,13.50
2008,05,09,13,19,13.50
2008,05,09,13,20,13.60
2008,05,09,13,21,13.60
2008,05,09,13,22,13.50
2008,05,09,13,23,13.50
2008,05,09,13,24,13.60
2008,05,09,13,25,13.60
2008,05,09,13,26,13.50
2008,05,09,13,27,13.30
2008,05,09,13,28,13.30
2008,05,09,13,29,13.30
2008,05,09,13,30,13.30
2008,05,09,13,31,13.30
2008,05,09,13,32,13.40
2008,05,09,13,33,13.50
2008,05,09,13,34,13.50
2008,05,09,13,35,13.60
2008,05,09,13,36,13.60
2008,05,09,13,37,13.70
2008,05,09,13,38,13.70
2008,05,09,13,39,13.60
2008,05,09,13,40,13.60
2008,05,09,13,41,13.60
2008,05,09,13,42,13.50
2008,05,09,13,43,13.50
2008,05,09,13,44,13.40
2008,05,09,13,45,13.30
2008,05,09,13,46,13.20
2008,05,09,13,47,13.20
2008,05,09,13,48,13.30
2008,05,09,13,49,13.40
2008,05,09,13,50,13.40
2008,05,09,13,51,13.40
2008,05,09,13,52,13.40
2008,05,09,13,53,13.40
2008,05,09,13,54,13.50
2008,05,09,13,55,13.50
2008,05,09,13,56,13.60
2008,05,09,13,57,13.70
2008,05,09,13,58,13.70
2008,05,09,13,59,13.70
2008,05,09,14,00,13.70
2008,05,09,14,01,13.80
2008,05,09,14,02,13.80
2008,05,09,14,03,13.70
2008,05,09,14,04,13.70
2008,05,09,14,05,13.80
2008,05,09,14,06,13.90
2008,05,09,14,07,13.90
2008,05,09,14,08,13.80
2008,05,09,14,09,13.80
2008,05,09,14,10,13.70
2008,05,09,14,11,13.60
2008,05,09,14,12,13.50
2008,05,09,14,13,13.40
2008,05,09,14,14,13.30
2008,05,09,14,15,13.20
2008,05,09,14,16,13.20
2008,05,09,14,17,13.20
2008,05,09,14,18,13.30
2008,05,09,14,19,13.30
2008,05,09,14,20,13.30
2008,05,09,14,21,13.30
2008,05,09,14,22,13.30
2008,05,09,14,23,13.40
2008,05,09,14,24,13.50
2008,05,09,14,25,13.60
2008,05,09,14,26,13.70
2008,05,09,14,27,13.80
2008,05,09,14,28,13.90
2008,05,09,14,29,13.80
2008,05,09,14,30,13.80
2008,05,09,14,31,13.70
2008,05,09,14,32,13.60
2008,05,09,14,33,13.60
2008,05,09,14,34,13.60
2008,05,09,14,35,13.70
2008,05,09,14,36,13.70
2008,05,09,14,37,13.80
2008,05,09,14,38,13.90
2008,05,09,14,39,13.90
2008,05,09,14,40,14.10
2008,05,09,14,41,14.20
2008,05,09,14,42,14.20
2008,05,09,14,43,14.30
2008,05,09,14,44,14.30
2008,05,09,14,45,14.10
2008,05,09,14,46,13.90
2008,05,09,14,47,13.80
2008,05,09,14,48,13.70
2008,05,09,14,49,13.70
2008,05,09,14,50,13.60
2008,05,09,14,51,13.60
2008,05,09,14,52,13.60
2008,05,09,14,53,13.60
2008,05,09,14,54,13.60
2008,05,09,14,55,13.70
2008,05,09,14,56,13.80
2008,05,09,14,57,13.80
2008,05,09,14,58,13.80
2008,05,09,14,59,13.90
2008,05,09,15,00,13.90
2008,05,09,15,01,13.90
2008,05,09,15,02,13.80
2008,05,09,15,03,13.70
2008,05,09,15,04,13.60
2008,05,09,15,05,13.50
2008,05,09,15,06,13.30
2008,05,09,15,07,13.30
2008,05,09,15,08,13.30
2008,05,09,15,09,13.20
2008,05,09,15,10,13.20
2008,05,09,15,11,13.20
2008,05,09,15,12,13.20
2008,05,09,15,13,13.20
2008,05,09,15,14,13.30
2008,05,09,15,15,13.40
2008,05,09,15,16,13.50
2008,05,09,15,17,13.50
2008,05,09,15,18,13.60
2008,05,09,15,19,13.50
2008,05,09,15,20,13.40
2008,05,09,15,21,13.40
2008,05,09,15,22,13.30
2008,05,09,15,23,13.30
2008,05,09,15,24,13.30
2008,05,09,15,25,13.30
2008,05,09,15,26,13.40
2008,05,09,15,27,13.50
2008,05,09,15,28,13.50
2008,05,09,15,29,13.60
2008,05,09,15,30,13.60
2008,05,09,15,31,13.60
2008,05,09,15,32,13.60
2008,05,09,15,33,13.60
2008,05,09,15,34,13.70
2008,05,09,15,35,13.80
2008,05,09,15,36,13.80
2008,05,09,15,37,13.80
2008,05,09,15,38,13.80
2008,05,09,15,39,13.80
2008,05,09,15,40,13.80
2008,05,09,15,41,13.90
2008,05,09,15,42,13.90
2008,05,09,15,43,13.90
2008,05,09,15,44,13.90
2008,05,09,15,45,14.00
2008,05,09,15,46,14.00
2008,05,09,15,47,14.00
2008,05,09,15,48,14.00
2008,05,09,15,49,13.90
2008,05,09,15,50,13.70
2008,05,09,15,51,13.60
2008,05,09,15,52,13.50
2008,05,09,15,53,13.40
2008,05,09,15,54,13.40
2008,05,09,15,55,13.30
2008,05,09,15,56,13.40
2008,05,09,15,57,13.40
2008,05,09,15,58,13.40
2008,05,09,15,59,13.50
2008,05,09,16,00,13.50
2008,05,09,16,01,13.50
2008,05,09,16,02,13.50
2008,05,09,16,03,13.50
2008,05,09,16,04,13.40
2008,05,09,16,05,13.40
2008,05,09,16,06,13.40
2008,05,09,16,07,13.40
2008,05,09,16,08,13.40
2008,05,09,16,09,13.50
2008,05,09,16,10,13.60
2008,05,09,16,11,13.60
2008,05,09,16,12,13.70
2008,05,09,16,13,13.90
2008,05,09,16,14,14.00
2008,05,09,16,15,14.00
2008,05,09,16,16,14.00
2008,05,09,16,17,14.00
2008,05,09,16,18,14.00
2008,05,09,16,19,14.10
2008,05,09,16,20,14.00
2008,05,09,16,21,13.90
2008,05,09,16,22,13.80
2008,05,09,16,23,13.70
2008,05,09,16,24,13.60
2008,05,09,16,25,13.50
2008,05,09,16,26,13.40
2008,05,09,16,27,13.30
2008,05,09,16,28,13.20
2008,05,09,16,29,13.20
2008,05,09,16,30,13.20
2008,05,09,16,31,13.20
2008,05,09,16,32,13.20
2008,05,09,16,33,13.20
2008,05,09,16,34,13.20
2008,05,09,16,35,13.30
2008,05,09,16,36,13.30
2008,05,09,16,37,13.30
2008,05,09,16,38,13.30
2008,05,09,16,39,13.30
2008,05,09,16,40,13.30
2008,05,09,16,41,13.30
2008,05,09,16,42,13.20
2008,05,09,16,43,13.20
2008,05,09,16,44,13.20
2008,05,09,16,45,13.20
2008,05,09,16,46,13.20
2008,05,09,16,47,13.20
2008,05,09,16,48,13.20
2008,05,09,16,49,13.20
2008,05,09,16,50,13.20
2008,05,09,16,51,13.20
2008,05,09,16,52,13.10
2008,05,09,16,53,13.00
2008,05,09,16,54,13.00
2008,05,09,16,55,12.90
2008,05,09,16,56,12.90
2008,05,09,16,57,12.90
2008,05,09,16,58,12.80
2008,05,09,16,59,12.70
2008,05,09,17,00,12.70
2008,05,09,17,01,12.60
2008,05,09,17,02,12.60
2008,05,09,17,03,12.60
2008,05,09,17,04,12.60
2008,05,09,17,05,12.60
2008,05,09,17,06,12.60
2008,05,09,17,07,12.60
2008,05,09,17,08,12.60
2008,05,09,17,09,12.60
2008,05,09,17,10,12.60
2008,05,09,17,11,12.60
2008,05,09,17,12,12.60
2008,05,09,17,13,12.50
2008,05,09,17,14,12.50
2008,05,09,17,15,12.50
2008,05,09,17,16,12.60
2008,05,09,17,17,12.60
2008,05,09,17,18,12.60
2008,05,09,17,19,12.60
2008,05,09,17,20,12.60
2008,05,09,17,21,12.50
2008,05,09,17,22,12.50
2008,05,09,17,23,12.50
2008,05,09,17,24,12.40
2008,05,09,17,25,12.40
2008,05,09,17,26,12.40
2008,05,09,17,27,12.40
2008,05,09,17,28,12.40
2008,05,09,17,29,12.30
2008,05,09,17,30,12.30
2008,05,09,17,31,12.30
2008,05,09,17,32,12.30
2008,05,09,17,33,12.30
2008,05,09,17,34,12.20
2008,05,09,17,35,12.20
2008,05,09,17,36,12.20
2008,05,09,17,37,12.20
2008,05,09,17,38,12.20
2008,05,09,17,39,12.20
2008,05,09,17,40,12.20
2008,05,09,17,41,12.20